When you browse on this site, cookies collect data to enhance your experience and personalize the content and advertising you see.
Visit our Privacy Policy to learn more. By continuing to use the site, you agree to this use of cookies and data.
  • In Deutschland
  • Länderverzeichnis
  • Für 7 Tage
  • Wassertemperatur
  • Satellitenkarten
  • Wetterkarte
  • Widgets
  • user-avatar
    Anmelden

    Stündliche Wetter Maceio

    Heute, 19 November, Montag

    Zeit Temperatur Niederschläge Wind Luftdruck Luftfeuchtigkeit
    00:00 +25°C° 0.1 mm 4 m/S 760 mmHg 88%
    01:00 +25°C° 0.1 mm 4 m/S 759 mmHg 88%
    02:00 +25°C° 0.1 mm 4 m/S 759 mmHg 87%
    03:00 +26°C° 0.1 mm 3 m/S 759 mmHg 85%
    04:00 +26°C° 0 mm 3 m/S 759 mmHg 83%
    05:00 +26°C° 0.1 mm 4 m/S 759 mmHg 81%
    06:00 +27°C° 0.1 mm 4 m/S 759 mmHg 80%
    07:00 +27°C° 0.1 mm 4 m/S 759 mmHg 78%
    08:00 +29°C° 0.1 mm 4 m/S 759 mmHg 71%
    09:00 +30°C° 0.1 mm 4 m/S 759 mmHg 64%
    10:00 +33°C° 0.1 mm 5 m/S 760 mmHg 56%
    11:00 +33°C° 0 mm 5 m/S 760 mmHg 54%
    12:00 +34°C° 0 mm 5 m/S 759 mmHg 52%
    13:00 +34°C° 0 mm 5 m/S 759 mmHg 50%
    14:00 +34°C° 0 mm 5 m/S 759 mmHg 52%
    15:00 +34°C° 0 mm 5 m/S 759 mmHg 54%
    16:00 +33°C° 0 mm 6 m/S 758 mmHg 55%
    17:00 +32°C° 0 mm 5 m/S 758 mmHg 63%
    18:00 +29°C° 0 mm 5 m/S 758 mmHg 72%
    19:00 +27°C° 0 mm 5 m/S 759 mmHg 80%
    20:00 +27°C° 0 mm 5 m/S 759 mmHg 83%
    21:00 +26°C° 0 mm 5 m/S 760 mmHg 86%
    22:00 +26°C° 0 mm 5 m/S 760 mmHg 89%
    23:00 +25°C° 0.1 mm 4 m/S 760 mmHg 89%

    Morgen, 20 November, Dienstag

    Zeit Temperatur Niederschläge Wind Luftdruck Luftfeuchtigkeit
    00:00 +25°C° 0.1 mm 4 m/S 760 mmHg 88%
    01:00 +25°C° 0.1 mm 4 m/S 760 mmHg 88%
    02:00 +25°C° 0.1 mm 5 m/S 759 mmHg 88%
    03:00 +25°C° 0.1 mm 5 m/S 759 mmHg 88%
    04:00 +25°C° 0.1 mm 5 m/S 759 mmHg 88%
    05:00 +26°C° 0.1 mm 5 m/S 759 mmHg 86%
    06:00 +26°C° 0.1 mm 5 m/S 760 mmHg 84%
    07:00 +27°C° 0.1 mm 5 m/S 760 mmHg 82%
    08:00 +28°C° 0.1 mm 5 m/S 760 mmHg 74%
    09:00 +30°C° 0.1 mm 6 m/S 760 mmHg 65%
    10:00 +33°C° 0.1 mm 6 m/S 761 mmHg 56%
    11:00 +34°C° 0.1 mm 6 m/S 760 mmHg 53%
    12:00 +34°C° 0.1 mm 6 m/S 760 mmHg 51%
    13:00 +35°C° 0.1 mm 6 m/S 760 mmHg 49%
    14:00 +34°C° 0 mm 6 m/S 759 mmHg 51%
    15:00 +33°C° 0 mm 6 m/S 759 mmHg 54%
    16:00 +33°C° 0 mm 6 m/S 758 mmHg 57%
    17:00 +30°C° 0 mm 6 m/S 758 mmHg 64%
    18:00 +29°C° 0 mm 5 m/S 759 mmHg 71%
    19:00 +27°C° 0 mm 5 m/S 759 mmHg 79%
    20:00 +27°C° 0.2 mm 5 m/S 760 mmHg 83%
    21:00 +26°C° 0.2 mm 5 m/S 760 mmHg 87%
    22:00 +26°C° 0.2 mm 5 m/S 761 mmHg 90%
    23:00 +26°C° 0.2 mm 5 m/S 761 mmHg 91%

    übermorgen, 21 November, Mittwoch

    Zeit Temperatur Niederschläge Wind Luftdruck Luftfeuchtigkeit
    00:00 +26°C° 0.2 mm 5 m/S 761 mmHg 92%
    01:00 +26°C° 0.2 mm 5 m/S 760 mmHg 93%
    02:00 +25°C° 0.2 mm 5 m/S 760 mmHg 94%
    03:00 +25°C° 0.2 mm 5 m/S 760 mmHg 95%
    04:00 +25°C° 0.2 mm 5 m/S 759 mmHg 96%
    05:00 +26°C° 0.2 mm 5 m/S 759 mmHg 93%
    06:00 +26°C° 0.2 mm 5 m/S 760 mmHg 91%
    07:00 +26°C° 0.2 mm 5 m/S 760 mmHg 89%
    08:00 +28°C° 0.1 mm 5 m/S 760 mmHg 80%
    09:00 +30°C° 0.1 mm 6 m/S 761 mmHg 71%
    10:00 +33°C° 0.1 mm 6 m/S 761 mmHg 62%
    11:00 +33°C° 0.1 mm 6 m/S 761 mmHg 59%
    12:00 +34°C° 0.1 mm 6 m/S 760 mmHg 55%
    13:00 +35°C° 0.1 mm 6 m/S 760 mmHg 51%
    14:00 +34°C° 0 mm 6 m/S 760 mmHg 53%
    15:00 +34°C° 0 mm 6 m/S 759 mmHg 55%
    16:00 +33°C° 0 mm 6 m/S 758 mmHg 57%
    17:00 +30°C° 0 mm 6 m/S 759 mmHg 65%
    18:00 +29°C° 0 mm 6 m/S 759 mmHg 73%
    19:00 +27°C° 0 mm 5 m/S 759 mmHg 80%
    20:00 +27°C° 0.1 mm 5 m/S 760 mmHg 84%
    21:00 +26°C° 0.1 mm 5 m/S 760 mmHg 88%
    22:00 +26°C° 0.1 mm 5 m/S 761 mmHg 91%
    23:00 +26°C° 0.2 mm 5 m/S 760 mmHg 92%

    22 November, Donnerstag

    Zeit Temperatur Niederschläge Wind Luftdruck Luftfeuchtigkeit
    00:00 +25°C° 0.2 mm 5 m/S 760 mmHg 93%
    01:00 +25°C° 0.2 mm 5 m/S 760 mmHg 94%
    02:00 +25°C° 0.1 mm 5 m/S 759 mmHg 94%
    03:00 +25°C° 0.1 mm 5 m/S 759 mmHg 94%
    04:00 +25°C° 0.1 mm 4 m/S 758 mmHg 94%
    05:00 +25°C° 0.1 mm 5 m/S 759 mmHg 92%
    06:00 +26°C° 0.1 mm 5 m/S 759 mmHg 90%
    07:00 +26°C° 0.1 mm 5 m/S 759 mmHg 87%
    08:00 +28°C° 0.1 mm 5 m/S 760 mmHg 79%
    09:00 +29°C° 0.1 mm 5 m/S 760 mmHg 71%
    10:00 +32°C° 0.1 mm 6 m/S 760 mmHg 63%
    11:00 +32°C° 0.1 mm 6 m/S 760 mmHg 60%
    12:00 +33°C° 0.1 mm 6 m/S 760 mmHg 57%
    13:00 +33°C° 0.1 mm 6 m/S 759 mmHg 54%
    14:00 +33°C° 0.1 mm 6 m/S 759 mmHg 56%
    15:00 +32°C° 0.1 mm 6 m/S 758 mmHg 57%
    16:00 +32°C° 0.1 mm 6 m/S 758 mmHg 59%
    17:00 +30°C° 0.1 mm 6 m/S 758 mmHg 65%
    18:00 +29°C° 0.1 mm 5 m/S 759 mmHg 71%
    19:00 +27°C° 0.1 mm 5 m/S 759 mmHg 77%
    20:00 +27°C° 0.1 mm 5 m/S 759 mmHg 79%
    21:00 +27°C° 0.1 mm 5 m/S 760 mmHg 81%
    22:00 +27°C° 0.1 mm 5 m/S 760 mmHg 83%
    23:00 +26°C° 0.2 mm 5 m/S 760 mmHg 84%

    23 November, Freitag

    Zeit Temperatur Niederschläge Wind Luftdruck Luftfeuchtigkeit
    00:00 +26°C° 0.2 mm 5 m/S 760 mmHg 85%
    01:00 +26°C° 0.2 mm 5 m/S 759 mmHg 86%
    02:00 +26°C° 0.1 mm 5 m/S 759 mmHg 88%
    03:00 +25°C° 0.1 mm 5 m/S 758 mmHg 89%
    04:00 +25°C° 0.1 mm 5 m/S 758 mmHg 91%
    05:00 +25°C° 0.1 mm 5 m/S 758 mmHg 89%
    06:00 +26°C° 0.1 mm 5 m/S 759 mmHg 87%
    07:00 +27°C° 0.1 mm 5 m/S 759 mmHg 85%
    08:00 +28°C° 0.1 mm 5 m/S 759 mmHg 77%
    09:00 +30°C° 0.1 mm 5 m/S 759 mmHg 69%
    10:00 +32°C° 0.1 mm 6 m/S 760 mmHg 61%
    11:00 +32°C° 0 mm 6 m/S 759 mmHg 61%
    12:00 +32°C° 0 mm 5 m/S 759 mmHg 62%
    13:00 +30°C° 0 mm 5 m/S 758 mmHg 63%
    14:00 +32°C° 0 mm 5 m/S 758 mmHg 62%
    15:00 +32°C° 0 mm 6 m/S 757 mmHg 61%
    16:00 +32°C° 0 mm 6 m/S 757 mmHg 60%
    17:00 +30°C° 0 mm 5 m/S 758 mmHg 66%
    18:00 +29°C° 0 mm 5 m/S 758 mmHg 72%
    19:00 +27°C° 0 mm 5 m/S 759 mmHg 78%
    20:00 +27°C° 0 mm 5 m/S 759 mmHg 82%
    21:00 +26°C° 0 mm 4 m/S 759 mmHg 86%
    22:00 +26°C° 0 mm 4 m/S 759 mmHg 90%
    23:00 +26°C° 0.1 mm 4 m/S 759 mmHg 90%

    24 November, Samstag

    Zeit Temperatur Niederschläge Wind Luftdruck Luftfeuchtigkeit
    00:00 +26°C° 0.1 mm 4 m/S 759 mmHg 91%
    01:00 +26°C° 0.1 mm 4 m/S 759 mmHg 92%
    02:00 +26°C° 0.1 mm 4 m/S 758 mmHg 92%
    03:00 +25°C° 0.1 mm 4 m/S 758 mmHg 93%
    04:00 +25°C° 0.1 mm 4 m/S 758 mmHg 94%
    05:00 +26°C° 0.1 mm 4 m/S 758 mmHg 92%
    06:00 +26°C° 0.1 mm 4 m/S 758 mmHg 90%
    07:00 +27°C° 0.1 mm 4 m/S 759 mmHg 88%
    08:00 +28°C° 0.1 mm 4 m/S 759 mmHg 81%
    09:00 +29°C° 0.1 mm 5 m/S 759 mmHg 73%
    10:00 +32°C° 0.1 mm 5 m/S 759 mmHg 66%
    11:00 +32°C° 0 mm 5 m/S 759 mmHg 64%
    12:00 +32°C° 0 mm 5 m/S 758 mmHg 62%
    13:00 +32°C° 0 mm 5 m/S 758 mmHg 60%
    14:00 +32°C° 0 mm 5 m/S 757 mmHg 60%
    15:00 +33°C° 0 mm 5 m/S 757 mmHg 59%
    16:00 +33°C° 0 mm 5 m/S 757 mmHg 59%
    17:00 +30°C° 0 mm 5 m/S 757 mmHg 65%
    18:00 +29°C° 0 mm 5 m/S 758 mmHg 72%
    19:00 +28°C° 0 mm 5 m/S 758 mmHg 79%
    20:00 +27°C° 0 mm 5 m/S 758 mmHg 82%
    21:00 +26°C° 0 mm 4 m/S 759 mmHg 86%
    22:00 +26°C° 0 mm 4 m/S 759 mmHg 90%
    23:00 +26°C° 0.1 mm 4 m/S 759 mmHg 91%
    Mehr zeigen